Weather History for Pierre, SD

Change the Weather History Date:

Thursday, March 6, 2014

  Actual Average Record
Temperature  
Mean Temperature 37 °F 31 °F  
Max Temperature 49 °F 41 °F 71 °F (2000)
Min Temperature 25 °F 20 °F -10 °F (1996)
Degree Days  
Heating Degree Days 28 34  
Month to date heating degree days 341 212  
Since 1 July heating degree days 6336 5710  
Cooling Degree Days 0 0  
Month to date cooling degree days 0 0  
Year to date cooling degree days 0 0  
Moisture  
Dew Point 30 °F    
Average Humidity 79    
Maximum Humidity 92    
Minimum Humidity 65    
Precipitation  
Precipitation 0.00 in 0.03 in 0.73 in (1908)
Month to date precipitation 0.21 0.18  
Year to date precipitation 0.78 1.19  
Snow  
Snow 0.00 in 0.20 in 7.30 in (1908)
Month to date snowfall 3.0 1.4  
Since 1 July snowfall 27.9 23.2  
Snow Depth 3.00 in    
Sea Level Pressure  
Sea Level Pressure 29.75 in    
Wind  
Wind Speed 9 mph (SE)    
Max Wind Speed 21 mph    
Max Gust Speed 24 mph    
Visibility 10 miles    
Events      
T = Trace of Precipitation, MM = Missing Value Source: NWS Daily Summary

Daily Weather History Graph

Daily Weather History Graph

Search for Another Location

Airport:

Trip Planner

Search our weather history database for the weather conditions in past years. The results will help you decide how hot, cold, wet, or windy it might be!

Date:

Astronomy

Mar. 06, 2014 Rise Set
Actual Time 7:09 AM CST 6:35 PM CST
Civil Twilight 6:40 AM CST 7:04 PM CST
Nautical Twilight 6:07 AM CST 7:38 PM CST
Astronomical Twilight 5:33 AM CST 8:12 PM CST
Moon 10:05 AM CST (3/6) No Moon Set
Length of Visible Light 12h 24m
Length of Day
11h 26m
Waxing Crescent, 32% of the Moon is Illuminated
Mar 6
Waxing Crescent
Mar 8
First Quarter
Mar 16
Full
Mar 23
Last Quarter
Mar 30
New

Hourly Weather History & Observations

Time (CST) Temp. Windchill Dew Point Humidity Pressure Visibility Wind Dir Wind Speed Gust Speed Precip Events Conditions
12:53 AM 27.0 °F 13.5 °F 21.0 °F 78% 29.94 in 10.0 mi SE 19.6 mph - N/A   Clear
1:53 AM 27.0 °F 17.3 °F 21.9 °F 81% 29.92 in 10.0 mi SE 10.4 mph - N/A   Clear
2:53 AM 27.0 °F 16.1 °F 23.0 °F 85% 29.89 in 10.0 mi SE 12.7 mph - N/A   Clear
3:53 AM 28.0 °F 17.0 °F 23.0 °F 81% 29.85 in 10.0 mi ESE 13.8 mph - N/A   Clear
4:53 AM 28.9 °F 18.2 °F 24.1 °F 82% 29.82 in 10.0 mi SE 13.8 mph - N/A   Clear
5:53 AM 27.0 °F 17.3 °F 24.1 °F 89% 29.81 in 10.0 mi ESE 10.4 mph - N/A   Clear
6:53 AM 26.1 °F 20.5 °F 23.0 °F 88% 29.80 in 10.0 mi SSE 4.6 mph - N/A   Clear
7:53 AM 27.0 °F 18.0 °F 24.1 °F 89% 29.81 in 10.0 mi SSE 9.2 mph - N/A   Clear
8:53 AM 30.0 °F 23.2 °F 26.1 °F 85% 29.80 in 10.0 mi SSE 6.9 mph - N/A   Clear
9:53 AM 34.0 °F 29.8 °F 28.9 °F 82% 29.80 in 10.0 mi SSE 4.6 mph - N/A   Clear
10:53 AM 37.0 °F 32.4 °F 30.9 °F 79% 29.76 in 10.0 mi SE 5.8 mph - N/A   Clear
11:53 AM 42.1 °F - 33.1 °F 70% 29.76 in 10.0 mi Calm Calm - N/A   Clear
12:53 PM 43.0 °F 38.8 °F 33.1 °F 68% 29.74 in 10.0 mi SE 6.9 mph - N/A   Clear
1:53 PM 45.0 °F 40.1 °F 34.0 °F 65% 29.70 in 10.0 mi SSE 9.2 mph - N/A   Clear
2:53 PM 46.0 °F 41.9 °F 35.1 °F 66% 29.67 in 10.0 mi SSE 8.1 mph - N/A   Clear
3:53 PM 48.0 °F - 37.0 °F 66% 29.66 in 10.0 mi SSE 9.2 mph - N/A   Clear
4:53 PM 48.9 °F - 37.0 °F 64% 29.63 in 10.0 mi SE 10.4 mph - N/A   Clear
5:53 PM 46.0 °F 41.9 °F 37.0 °F 71% 29.61 in 10.0 mi ESE 8.1 mph - N/A   Clear
6:53 PM 39.0 °F 36.8 °F 34.0 °F 82% 29.64 in 10.0 mi ENE 3.5 mph - N/A   Clear
7:53 PM 37.0 °F 34.5 °F 33.1 °F 86% 29.65 in 10.0 mi ENE 3.5 mph - N/A   Clear
8:53 PM 37.9 °F 30.9 °F 34.0 °F 86% 29.66 in 10.0 mi NW 10.4 mph - N/A   Scattered Clouds
9:53 PM 37.9 °F 33.5 °F 34.0 °F 86% 29.70 in 10.0 mi North 5.8 mph - N/A   Overcast
10:53 PM 37.0 °F 31.0 °F 34.0 °F 89% 29.71 in 10.0 mi WNW 8.1 mph - N/A   Scattered Clouds
11:53 PM 37.0 °F 28.5 °F 33.1 °F 86% 29.75 in 10.0 mi NNW 13.8 mph - N/A   Overcast